Theta_e
337 337 339 340 340 339 339 338 337 337 338 337 337 336 335 335 335 335 334 332 331 330 331 333 334 335 335 336 336 335 335 336 335 335 336 337 337 336 335 333 330 327 326 328 330 331 331 329 329 330 328 327 326 327 328 329 328 326 326 328 328 327 326 326 326 326 326 325 324 325 327 327 328 328 329 329 329 329 330 331 331 332 332 332 332
339 338 340 342 343 342 341 340 340 340 340 339 338 338 337 336 336 335 334 333 332 330 331 332 332 334 335 335 336 336 336 336 336 336 336 338 337 337 336 335 334 331 327 328 330 331 332 330 329 329 329 328 327 327 329 329 329 327 327 328 328 327 326 326 326 326 325 326 326 326 326 327 327 328 328 329 329 329 330 330 331 331 331 331 332
340 339 341 342 342 342 341 341 341 341 342 341 340 340 339 338 338 337 336 335 335 334 333 332 332 332 333 334 335 336 336 337 337 337 337 337 337 337 336 335 335 334 330 327 328 330 332 330 329 330 330 329 329 329 329 329 329 328 327 328 328 327 326 325 325 326 325 325 325 324 324 325 326 327 328 328 328 328 328 329 330 330 330 331 331
341 341 341 342 342 340 340 340 340 341 341 341 342 342 341 341 340 340 339 337 337 336 335 334 334 332 332 333 333 335 336 337 337 337 338 337 336 336 336 335 334 335 333 328 327 328 330 331 330 330 330 330 330 329 329 329 329 328 328 328 328 326 325 325 324 325 325 326 325 324 323 323 325 326 327 328 328 328 328 328 330 330 330 330 331
342 343 343 342 342 341 341 340 340 340 339 341 343 342 341 341 341 340 340 339 337 336 336 336 335 334 333 333 333 333 335 337 337 337 337 338 337 336 336 335 333 334 334 330 328 327 328 330 331 330 330 330 330 330 330 330 329 329 328 327 327 326 324 323 323 324 325 326 325 325 323 322 324 326 326 327 327 327 327 327 328 329 329 330 330
341 342 343 342 343 342 341 340 341 341 340 342 342 342 341 341 340 339 339 339 338 336 337 337 336 335 334 334 333 333 335 336 337 337 337 338 337 336 336 335 334 334 334 332 330 327 327 329 331 331 330 330 330 330 329 330 329 328 328 327 327 325 324 323 324 324 325 326 325 324 324 322 323 325 326 326 326 327 327 326 327 328 328 327 327
341 341 341 341 341 341 340 340 340 340 340 341 341 340 341 340 340 340 339 339 338 337 337 337 336 337 336 335 335 335 335 336 337 337 337 338 337 336 336 336 336 334 333 333 332 330 327 328 330 332 331 330 330 329 328 329 329 327 327 326 326 325 324 324 324 325 325 326 325 325 324 323 322 323 325 325 326 326 326 326 326 327 327 326 325
341 340 341 341 340 340 340 340 339 339 339 339 339 338 339 339 339 340 339 339 339 338 338 338 337 338 338 336 336 336 336 336 336 337 337 337 336 336 336 336 337 335 334 333 333 333 330 327 328 330 330 329 330 329 328 329 328 327 326 325 325 324 324 324 323 325 326 326 325 325 324 323 322 322 324 325 325 326 326 326 326 326 326 325 324
341 340 340 340 340 339 339 339 339 339 339 339 338 338 337 337 338 338 339 339 339 338 339 339 339 339 339 338 338 337 337 337 336 336 337 336 336 335 335 335 336 336 335 333 333 333 332 330 328 328 329 328 330 329 327 327 327 327 327 325 324 323 324 323 324 325 326 326 325 325 323 323 322 322 323 324 325 325 325 325 325 326 325 325 323
341 340 340 339 339 339 339 339 339 339 339 339 338 338 338 337 338 338 338 339 339 339 339 339 339 339 339 339 339 338 338 339 337 337 336 336 337 336 336 336 336 336 336 334 333 332 333 332 330 328 327 327 329 328 326 326 326 327 327 326 324 324 324 323 324 325 326 326 325 324 323 322 322 322 322 324 325 325 325 325 325 325 325 324 323
340 340 339 339 339 339 339 339 339 339 338 338 337 338 337 338 338 338 338 338 339 339 338 338 338 339 339 339 340 340 340 339 338 338 336 336 337 337 337 336 336 337 337 336 334 333 333 333 332 330 329 327 327 327 326 325 326 327 327 326 324 324 324 323 324 325 325 325 325 324 323 322 322 322 322 323 324 325 324 324 324 325 323 323 323
339 340 340 339 339 339 339 338 338 338 338 337 337 337 337 337 338 338 338 339 338 338 338 338 337 337 338 338 339 340 341 340 339 339 338 337 337 337 336 336 336 337 337 337 336 335 333 333 333 332 332 329 327 326 326 325 325 326 327 326 325 324 324 323 325 326 325 325 324 324 322 320 322 322 321 323 324 324 324 324 324 323 323 323 322
339 340 340 339 340 340 340 339 338 337 337 338 337 337 337 337 337 337 338 338 338 338 338 337 337 336 336 336 337 338 340 340 339 339 338 338 338 337 337 336 335 336 336 336 337 336 334 333 333 333 333 331 329 327 325 324 323 325 326 326 325 324 324 324 325 326 325 324 323 323 322 320 322 322 320 322 323 323 323 323 323 323 322 322 322
340 340 340 340 340 340 340 340 340 339 338 338 338 337 337 337 336 336 337 337 337 338 338 337 336 335 334 334 335 336 337 338 339 339 339 338 337 337 337 336 337 337 334 335 338 337 334 333 332 333 332 332 331 329 327 326 324 324 326 326 325 325 325 324 325 326 325 323 322 323 321 321 323 321 320 322 322 322 322 322 322 322 321 321 321
341 340 340 340 339 339 339 340 341 341 340 340 338 338 338 338 337 337 336 336 336 337 338 338 336 334 333 333 334 333 334 336 338 338 338 339 337 337 337 337 338 337 335 335 337 337 333 330 332 332 332 332 333 331 329 328 326 325 324 325 325 325 325 324 324 326 325 322 322 322 321 321 321 320 320 322 322 322 321 321 321 321 320 320 319
340 340 340 340 339 339 338 339 340 340 340 340 338 338 338 338 338 338 338 337 336 336 337 338 337 335 334 333 333 332 332 332 335 336 338 338 337 337 337 337 336 336 337 336 335 337 332 328 331 332 332 332 332 332 331 329 327 325 324 324 325 325 325 324 324 326 324 323 322 321 320 321 320 319 321 323 322 321 321 321 321 320 320 319 319
340 340 339 339 338 338 338 338 338 338 338 338 337 338 337 337 337 338 339 338 338 337 337 338 338 337 336 335 333 332 332 332 334 335 338 338 338 337 337 337 337 336 337 335 334 336 333 329 330 332 332 332 332 331 331 330 327 326 324 324 323 323 325 324 324 326 324 323 322 320 321 323 321 320 322 323 322 321 322 322 322 322 321 319 320
339 339 338 338 338 337 337 337 337 337 337 337 337 337 336 336 336 336 337 337 338 338 337 337 337 338 338 337 335 335 334 335 335 334 335 337 337 336 335 336 336 336 336 335 334 335 334 332 331 332 332 332 332 332 331 330 328 327 326 324 323 322 323 324 324 326 325 323 321 321 322 324 322 321 322 323 322 321 323 323 323 323 322 321 322
338 338 337 337 337 337 337 337 336 336 336 336 336 335 335 335 334 335 335 336 336 337 336 335 335 337 338 338 337 337 337 336 335 335 333 334 335 334 333 334 334 335 335 334 335 335 334 334 333 332 332 332 333 332 331 330 329 328 327 325 324 321 321 323 323 326 326 323 323 323 323 325 323 322 323 323 322 322 324 324 324 324 323 322 323
337 337 337 337 337 337 336 336 336 335 335 335 335 335 335 335 334 334 334 334 335 335 335 334 334 334 335 335 335 335 336 336 336 335 332 332 334 333 333 334 333 334 335 335 335 335 334 334 334 333 332 332 333 332 331 330 329 328 327 325 324 322 320 321 322 326 327 323 324 325 324 325 325 323 323 324 323 324 324 325 324 324 323 323 323
337 336 336 336 335 336 336 336 336 335 335 335 334 334 334 334 334 334 334 334 333 333 334 333 333 333 333 334 334 334 335 335 336 334 331 331 333 332 333 335 334 334 335 335 336 334 334 333 332 333 333 332 332 332 331 330 329 328 327 325 324 322 320 320 322 326 327 324 323 325 325 325 326 325 324 324 324 324 324 324 324 324 324 323 323
336 336 335 335 334 335 335 334 334 334 334 334 333 333 333 333 333 334 333 333 333 333 333 333 333 333 332 333 333 333 333 334 335 334 331 331 332 332 332 333 334 334 334 335 335 334 333 333 333 335 333 331 332 332 331 331 330 329 328 326 324 323 321 319 322 325 326 325 323 325 326 326 326 326 325 324 324 324 325 324 325 325 324 324 324
335 334 334 334 333 333 333 333 332 333 332 332 333 332 332 332 333 333 333 333 333 333 333 333 333 332 332 332 333 333 333 333 334 333 333 333 333 332 332 332 332 332 333 333 333 333 333 332 333 335 334 332 333 333 331 330 330 329 328 327 324 324 322 320 322 324 326 325 323 324 326 327 327 326 326 325 324 324 325 325 325 325 324 324 323
333 333 333 332 332 331 331 331 331 331 331 332 332 331 331 332 332 332 332 332 333 332 332 332 332 332 331 331 332 332 332 333 333 333 333 333 332 331 331 331 330 331 331 332 332 332 332 331 333 334 334 333 333 333 331 330 330 329 328 327 325 325 323 321 322 323 325 326 324 323 325 327 327 327 326 326 325 325 325 325 325 325 324 323 322
332 332 331 330 330 330 330 330 330 331 330 330 330 330 330 331 331 332 332 332 332 332 332 332 332 332 331 332 332 333 332 332 332 332 333 333 330 330 332 332 331 329 330 333 333 332 332 332 333 334 334 333 333 333 332 330 330 330 328 327 326 325 324 322 321 322 324 326 325 323 324 326 328 327 327 326 326 325 325 325 325 325 325 323 322
331 330 330 328 329 329 329 329 329 329 329 329 329 329 330 330 331 331 331 332 332 332 332 332 331 331 332 332 333 333 333 333 332 330 332 333 331 331 331 331 331 330 331 332 332 331 332 333 334 335 334 333 332 332 332 330 329 329 328 328 327 326 324 322 321 321 323 325 326 324 323 325 327 327 327 327 326 326 325 325 325 325 325 323 321
329 329 328 328 328 328 328 328 328 328 328 329 329 329 329 330 331 331 331 332 332 332 332 331 331 331 331 332 332 333 333 333 333 331 332 332 331 330 330 329 330 331 331 330 330 329 330 332 333 334 332 332 333 332 332 331 329 328 328 328 327 326 325 322 321 321 323 324 326 325 323 324 327 327 327 327 326 325 326 326 325 325 324 323 322
328 328 328 327 327 327 327 327 327 328 328 328 328 329 330 330 331 331 331 332 331 332 332 331 331 331 331 332 333 333 332 333 333 331 331 332 331 330 329 329 331 330 329 330 330 329 330 332 333 333 332 331 332 332 332 331 329 328 328 328 327 326 325 324 321 320 322 324 325 325 323 323 326 326 326 327 326 325 325 326 325 324 324 323 322
327 327 326 326 325 325 325 326 326 327 327 327 327 328 329 329 330 331 331 331 331 332 331 331 331 332 333 333 333 333 333 333 332 330 330 332 331 330 328 329 331 330 330 331 330 330 331 331 332 333 333 332 331 331 332 331 329 328 327 328 327 327 326 325 322 320 322 324 325 325 323 323 325 326 326 326 326 326 325 325 325 325 324 323 321
326 325 324 324 324 324 324 324 325 325 325 326 326 327 327 328 329 330 331 331 331 332 331 331 332 333 333 333 333 333 332 332 331 331 332 332 332 330 329 329 331 331 330 331 330 331 332 331 329 331 332 332 331 331 332 331 330 328 327 328 327 327 327 325 322 320 321 323 324 325 323 323 324 325 326 326 326 326 325 324 325 324 324 323 321
324 323 323 323 322 322 323 323 324 324 324 324 325 326 326 327 328 328 329 330 331 331 331 331 332 332 332 332 333 333 332 330 329 330 331 332 332 331 330 329 329 331 331 330 330 331 331 330 329 330 331 331 331 331 331 331 331 329 327 328 328 327 327 325 321 320 321 322 324 325 324 324 324 325 326 326 326 326 325 324 324 324 324 323 321
322 322 322 321 322 322 322 323 323 323 323 323 324 325 325 326 327 327 328 329 330 331 330 331 331 331 331 331 331 330 330 329 329 329 330 330 330 330 330 329 329 331 331 329 330 330 330 329 330 331 331 329 329 330 331 332 331 330 328 328 327 327 327 326 322 319 320 321 323 324 325 325 324 325 326 326 326 325 325 325 324 324 323 322 320
321 321 321 320 321 321 322 322 322 322 322 322 323 323 324 325 326 326 327 328 329 330 330 330 330 330 330 330 329 328 329 329 329 329 329 329 329 329 329 329 330 330 329 329 329 329 328 329 331 332 330 328 329 331 331 332 332 330 328 327 327 327 327 327 323 319 320 321 322 324 324 325 325 325 325 326 325 325 325 324 324 324 323 321 319
319 319 320 320 319 320 321 321 321 322 322 322 322 322 323 324 325 326 326 327 328 328 329 328 329 328 328 328 328 327 327 329 329 330 329 329 329 329 329 329 329 329 330 329 329 329 329 329 330 331 329 327 329 331 332 332 332 330 328 327 327 326 327 327 324 320 319 321 322 323 323 325 326 326 326 326 325 325 324 324 323 323 321 320 319
318 318 319 319 319 319 320 320 321 321 321 321 322 322 323 323 324 324 325 325 326 326 326 326 325 325 325 324 323 323 324 326 328 329 329 329 329 329 329 329 329 329 329 329 330 330 329 328 329 331 330 327 327 330 332 332 331 330 328 327 327 326 326 327 326 322 319 319 321 323 323 324 325 325 326 326 325 325 324 323 322 320 320 320 319
318 318 318 318 318 319 319 319 320 320 319 320 320 320 321 322 322 322 322 323 324 324 323 323 323 322 320 318 317 318 319 322 324 325 326 327 328 328 328 328 328 328 328 328 329 330 328 329 330 330 329 327 327 328 330 331 330 329 328 327 327 326 326 327 327 325 322 319 320 322 322 323 324 325 326 326 326 325 324 323 321 319 320 320 319
317 317 317 317 318 318 318 318 318 317 317 317 317 317 319 320 320 320 321 321 322 322 321 321 321 319 317 315 314 314 315 316 317 319 320 323 327 328 327 327 327 328 328 328 328 329 329 330 330 328 327 327 327 328 329 330 330 329 328 327 327 327 327 328 327 326 326 322 319 320 322 323 323 324 325 325 325 325 324 324 321 319 320 320 319
317 317 317 317 316 317 316 316 316 315 314 314 315 315 316 318 319 319 319 319 320 320 319 319 319 318 316 313 312 312 312 312 312 313 316 319 323 324 323 324 326 327 328 328 328 329 329 330 329 327 327 326 327 329 329 330 330 330 328 327 327 327 328 329 328 327 327 325 320 319 321 322 322 323 324 324 325 325 324 325 323 321 320 319 319
317 317 317 316 315 315 314 314 314 313 312 312 313 314 315 317 318 318 318 317 317 318 318 317 317 317 316 314 312 311 311 311 310 311 313 315 317 318 317 318 321 325 327 327 327 327 328 329 328 327 327 327 326 327 328 329 329 330 329 328 327 327 327 328 328 328 327 326 324 320 319 321 322 322 323 324 324 324 325 324 323 323 321 319 318
316 316 316 315 315 314 313 313 312 311 310 311 312 313 314 316 317 317 316 316 316 316 316 316 316 316 315 314 312 311 311 311 309 309 310 311 311 311 312 313 315 320 325 326 326 326 326 327 327 327 327 326 326 327 327 328 329 329 329 329 328 329 329 328 329 328 327 327 326 322 320 321 321 322 323 323 324 324 324 325 324 323 322 319 318
315 315 315 314 314 313 313 312 311 310 309 310 311 313 314 315 316 316 315 315 315 315 316 316 316 315 315 314 313 312 312 312 311 310 309 309 308 307 308 310 311 314 318 322 323 323 325 326 326 326 327 327 326 327 327 327 327 327 328 329 329 329 329 329 328 328 328 327 325 323 321 321 321 322 323 323 324 324 324 324 323 322 321 320 318
315 314 314 314 313 313 312 312 311 309 309 310 311 312 313 314 315 315 315 314 314 315 315 315 315 315 315 314 313 312 312 312 312 311 310 309 307 306 306 307 308 309 311 315 318 319 322 323 321 322 325 325 325 326 326 326 326 326 326 327 327 327 327 327 326 325 326 327 324 322 322 321 321 322 322 323 324 324 324 324 323 323 321 319 318
315 314 313 313 313 313 312 312 311 309 309 310 310 312 313 314 315 315 314 314 314 314 314 314 315 315 315 314 313 312 312 313 312 312 311 310 308 307 306 306 306 306 307 309 312 314 317 318 315 315 316 318 319 321 322 324 325 326 326 327 326 326 325 325 324 322 322 324 324 320 318 319 321 321 322 323 323 323 324 324 323 322 320 319 318
315 314 313 313 313 313 312 311 310 309 308 309 310 311 312 313 314 314 314 314 313 313 314 314 314 314 314 314 313 312 312 312 312 313 312 311 309 307 307 306 306 307 306 307 308 309 311 311 310 309 309 312 314 315 317 319 322 325 326 326 326 326 325 324 323 321 320 321 320 315 311 314 318 316 314 316 320 322 321 322 321 319 318 318 316
314 313 313 313 313 313 313 312 310 308 308 309 310 311 312 313 313 313 313 313 312 312 312 312 313 313 313 313 312 312 311 311 312 312 313 312 311 309 308 307 306 306 306 307 307 307 307 308 307 306 306 308 310 312 315 318 320 322 324 325 325 325 324 324 322 319 318 319 316 309 305 306 310 310 307 307 312 318 318 317 317 316 315 315 313
314 313 313 313 312 312 313 312 310 308 308 309 309 310 312 312 313 313 312 312 311 310 310 309 310 310 312 312 312 311 311 310 310 312 312 312 312 310 309 309 308 307 306 306 307 307 307 306 306 305 306 307 309 312 316 318 318 320 322 323 323 322 320 319 317 315 314 315 314 309 303 301 305 306 304 302 306 310 312 313 313 314 313 313 313
314 313 313 312 312 312 312 312 310 308 308 309 310 311 312 312 312 312 312 311 310 309 308 307 306 307 308 310 310 310 310 309 309 310 312 312 312 311 310 310 309 308 307 307 307 307 307 307 306 306 306 308 309 312 315 317 317 318 320 321 320 318 315 313 312 310 309 309 312 310 303 300 303 304 301 302 304 305 307 310 312 313 313 312 312
313 313 313 312 312 312 312 312 311 308 308 309 310 311 312 312 313 313 312 311 310 309 308 306 304 304 306 307 308 308 308 308 309 310 311 311 312 312 311 310 310 310 309 308 307 307 307 307 307 307 307 308 309 311 313 316 317 318 318 317 316 314 313 310 307 306 306 305 307 306 301 299 302 302 299 302 305 305 305 308 311 311 309 307 307
313 312 311 311 311 310 310 310 310 308 307 308 310 310 311 312 313 312 312 311 310 309 308 306 304 303 303 304 305 306 305 306 307 309 311 311 311 311 311 310 309 309 309 309 308 307 307 307 307 307 307 307 309 310 312 314 316 316 316 315 313 311 310 309 307 306 305 303 303 303 301 299 300 300 298 299 302 302 303 306 309 308 306 305 307
312 311 311 310 310 309 308 308 308 307 306 307 309 310 310 311 312 312 311 310 310 308 307 306 305 303 302 302 303 303 304 305 306 308 309 310 311 310 310 310 309 308 308 309 308 308 307 307 307 307 307 307 307 307 308 311 313 313 313 313 312 310 309 309 308 306 305 304 303 303 302 300 300 300 299 298 298 298 299 301 304 305 305 305 306
311 311 310 310 309 309 308 306 306 305 304 305 308 309 309 310 311 311 310 309 308 308 307 306 305 304 302 301 301 302 303 304 305 306 307 308 309 309 309 309 309 308 308 308 308 308 308 307 307 306 306 306 306 306 306 307 309 310 310 311 311 310 310 309 309 308 307 306 305 305 303 302 302 302 301 299 297 296 296 298 300 301 302 303 303
Wind_Speed
6 6 5 5 4 4 4 3 4 4 5 6 6 6 7 7 7 8 9 9 10 11 10 10 10 10 11 11 11 11 10 10 9 9 10 8 9 10 9 7 7 7 8 8 7 8 10 9 8 6 5 5 5 5 6 6 5 4 5 5 4 3 3 3 3 4 5 5 6 8 7 6 6 6 6 6 7 7 8 8 8 9 10 11 11
7 7 6 6 4 4 3 3 3 3 3 5 5 6 7 8 8 8 9 9 10 10 10 11 12 11 12 11 11 11 11 11 10 10 11 10 8 9 11 10 9 8 9 9 9 10 10 9 10 9 7 7 5 5 7 7 6 5 5 5 5 4 4 3 3 4 4 5 6 7 7 6 6 6 6 6 7 7 8 7 8 9 10 11 12
7 7 6 6 5 5 5 4 4 4 4 5 5 5 6 7 7 8 9 9 9 9 10 11 12 13 13 13 13 12 12 11 11 11 11 11 9 9 12 11 10 10 11 12 12 12 11 10 11 10 8 9 7 7 7 7 6 6 6 6 6 5 5 4 4 4 5 6 6 6 6 6 6 6 6 7 7 7 7 8 8 9 10 11 12
7 6 6 5 5 5 6 6 5 6 7 6 6 6 7 7 7 8 9 10 10 10 10 11 12 13 13 14 13 13 12 11 12 12 12 12 10 11 12 13 12 13 13 13 13 14 14 12 11 11 10 10 9 9 8 7 7 7 6 7 6 6 6 6 6 6 6 7 6 6 5 6 6 7 7 7 7 7 7 7 8 9 10 10 11
7 6 6 5 4 5 5 6 6 8 8 7 7 8 8 9 9 9 9 10 11 12 12 12 13 14 14 15 14 13 13 13 13 13 13 13 12 12 12 14 13 13 13 14 14 15 15 14 13 12 12 11 10 10 10 9 8 8 7 7 7 6 6 6 6 7 8 8 7 6 5 6 7 7 7 7 7 7 7 7 7 9 10 10 10
6 6 5 5 5 5 6 6 6 7 7 7 8 9 9 10 10 10 10 10 12 12 13 13 14 15 15 14 15 15 13 13 14 14 14 14 14 13 12 13 13 14 14 14 16 16 16 16 15 14 13 13 12 11 11 10 9 9 9 8 8 7 7 7 7 8 9 9 7 7 6 6 8 8 8 8 8 8 8 8 8 9 10 10 10
5 5 5 4 4 5 5 5 5 5 6 7 7 8 8 9 10 10 11 11 12 13 13 14 15 15 15 15 15 15 14 15 16 15 16 15 15 15 14 14 14 15 15 15 16 17 18 18 19 18 15 14 14 12 11 11 10 10 10 9 8 8 8 8 8 9 10 9 8 7 6 6 8 9 9 9 9 8 8 9 9 10 10 10 10
4 4 4 3 3 3 4 4 3 4 5 5 6 7 8 9 9 9 10 11 12 13 13 14 14 14 15 17 17 16 15 16 17 17 18 18 19 18 17 16 15 17 18 16 16 17 20 21 20 20 19 17 16 14 12 13 12 11 11 11 10 10 10 10 10 11 10 10 9 8 7 7 8 9 9 9 10 9 9 9 9 9 9 9 9
4 3 3 3 3 3 3 4 4 5 5 5 6 7 8 8 9 9 10 11 11 12 12 13 13 14 15 17 19 19 17 16 16 18 19 20 21 20 18 17 16 17 18 18 18 19 22 22 21 21 21 20 18 16 15 14 14 14 13 12 11 11 11 11 10 11 12 11 10 8 8 8 8 9 10 10 11 10 10 10 9 9 9 8 8
4 4 4 4 4 4 4 5 5 5 6 6 7 7 8 8 9 9 10 10 11 11 11 12 12 14 15 15 17 18 18 19 19 20 21 20 21 21 18 17 17 17 18 18 18 21 22 20 20 21 22 22 20 19 17 15 15 15 14 13 12 12 13 12 12 12 12 11 10 9 8 9 10 10 11 12 11 11 10 10 10 9 8 7 7
5 4 4 4 4 4 5 5 5 5 6 7 7 8 8 9 10 10 10 11 11 11 11 12 12 13 15 15 15 16 17 18 19 21 22 22 22 21 19 18 17 17 17 18 18 19 20 18 20 22 21 22 23 21 19 17 16 15 15 14 13 13 14 13 13 13 12 11 10 9 9 11 12 11 13 13 12 12 11 10 10 9 8 8 8
5 5 5 4 4 5 5 5 5 6 7 8 8 8 9 10 10 11 11 12 12 12 12 12 13 14 15 15 16 16 17 18 18 19 20 20 21 22 21 19 18 17 17 18 18 18 19 18 20 22 21 22 23 23 21 19 19 17 16 16 14 14 15 14 14 13 12 12 11 10 10 11 13 13 14 14 13 12 12 11 10 9 9 9 9
5 5 5 4 5 5 6 6 7 7 8 9 9 9 10 10 10 11 12 13 12 12 12 12 13 13 13 14 16 17 18 19 19 20 19 19 21 21 21 20 18 18 18 18 19 20 21 20 20 21 21 22 23 22 22 20 20 19 17 17 16 15 16 15 14 14 14 12 12 12 11 13 14 14 15 15 14 13 12 12 11 11 10 11 11
5 5 5 5 5 6 6 7 8 8 9 9 10 10 11 11 12 12 12 13 13 11 11 11 13 13 11 11 13 15 17 19 19 19 19 20 21 20 20 19 18 19 19 17 18 21 23 23 21 22 22 22 22 21 22 21 20 20 19 18 17 17 17 16 15 15 14 13 13 14 13 14 15 15 16 16 14 13 13 13 13 13 12 13 12
4 4 4 5 6 6 6 7 7 8 9 10 11 11 12 12 12 13 13 13 13 11 10 11 14 14 12 9 8 9 11 14 16 19 20 20 20 19 19 20 19 19 19 18 17 18 23 25 24 23 23 21 20 20 20 20 20 20 21 20 18 18 18 17 17 16 14 13 14 15 15 16 15 16 17 16 14 14 14 15 14 14 14 14 14
4 4 4 5 6 6 7 7 7 8 9 11 12 11 11 11 12 12 13 14 14 12 11 12 14 13 10 8 8 8 8 7 9 15 19 19 18 20 20 21 20 18 18 19 18 17 20 24 24 24 24 22 19 20 20 18 19 20 20 21 20 20 19 18 18 17 15 14 15 16 17 17 16 18 18 16 15 15 16 16 16 16 16 16 17
3 4 4 5 6 7 7 8 8 9 10 11 12 12 12 11 11 11 12 14 14 13 12 12 14 15 12 9 8 7 7 8 9 7 13 17 18 21 21 19 18 17 18 20 19 18 20 23 25 24 24 23 20 19 20 18 19 20 20 22 22 21 19 19 19 17 16 16 16 18 19 18 17 19 19 17 17 17 17 17 17 17 17 18 19
2 3 4 5 6 7 8 8 9 9 10 10 11 11 12 12 11 11 12 13 13 14 15 13 14 16 17 15 13 11 10 10 10 6 7 14 18 20 20 19 19 19 20 22 20 19 19 21 25 26 24 24 21 20 20 18 19 20 20 22 23 21 20 20 20 19 18 17 18 19 20 18 18 20 20 19 19 19 18 18 17 18 18 18 17
2 3 4 5 6 7 7 7 8 9 9 9 10 11 11 12 12 12 13 13 13 14 16 15 14 14 15 18 18 17 16 13 9 6 7 11 14 16 18 19 19 20 21 22 20 20 20 18 21 25 25 25 24 21 22 19 19 20 20 22 22 21 22 23 22 21 20 19 19 20 20 19 19 21 20 20 20 20 19 18 18 18 18 18 16
3 4 5 5 6 6 7 8 8 9 9 10 11 11 12 12 12 13 14 14 14 15 16 16 15 15 14 16 17 18 18 16 15 11 8 9 9 11 15 17 19 20 20 21 21 22 23 21 20 23 25 26 26 24 23 21 20 20 19 20 22 22 23 25 25 23 22 21 21 21 21 20 20 21 21 20 20 20 20 19 19 19 18 18 16
2 4 5 5 6 7 7 8 9 10 10 10 12 12 13 13 14 15 15 15 15 16 17 17 17 17 16 16 15 16 16 16 17 15 12 12 10 9 10 11 15 18 20 21 23 24 24 22 21 22 24 26 27 25 24 22 21 21 20 21 23 22 23 26 26 25 24 24 23 22 22 22 21 21 21 21 21 21 20 20 20 20 19 18 17
2 3 4 5 6 7 8 9 9 10 10 11 12 13 13 14 14 16 15 16 17 16 17 17 17 18 17 16 15 15 14 13 12 12 12 13 11 10 11 10 9 12 18 23 25 25 25 24 20 20 24 26 26 26 24 21 21 21 21 23 25 22 23 27 28 26 26 25 24 24 23 23 23 23 22 22 22 21 21 21 20 20 20 19 19
3 3 4 5 6 7 8 9 9 10 11 11 13 13 13 14 15 15 15 16 17 17 17 18 18 18 18 17 16 16 15 13 13 12 11 10 9 10 13 13 10 10 16 21 23 23 24 24 21 20 22 24 25 27 26 23 21 21 22 23 25 23 22 27 30 28 27 27 26 25 25 23 23 24 24 23 23 22 22 22 21 21 20 20 19
3 3 4 5 7 7 8 9 9 10 10 11 12 12 13 14 14 15 15 16 17 17 17 17 18 18 18 18 17 17 17 16 16 15 13 12 10 9 12 12 9 12 14 13 17 22 23 24 21 19 20 21 22 25 28 28 23 20 23 24 24 25 23 26 32 30 28 29 28 27 26 24 23 24 24 24 24 23 23 23 22 22 22 20 18
3 4 5 6 7 7 8 9 9 9 10 11 12 13 13 14 14 15 15 16 16 17 17 18 19 19 19 19 17 17 18 16 18 18 15 15 13 9 12 12 9 12 14 9 10 17 22 22 19 18 20 21 21 23 27 31 28 21 22 25 25 25 24 26 32 32 30 30 30 28 27 25 24 24 24 24 24 24 23 24 24 23 22 20 19
3 4 5 6 7 7 8 8 9 9 10 11 12 13 13 14 14 15 15 16 17 17 17 19 20 20 19 18 17 17 17 16 19 20 17 14 13 11 11 12 11 12 13 12 11 12 17 20 19 19 20 20 20 22 26 31 32 26 23 25 26 26 25 27 32 34 32 31 30 29 29 27 25 24 24 24 24 24 24 24 25 24 23 21 19
3 4 5 6 7 7 8 8 9 9 10 11 12 12 13 13 14 15 15 16 17 17 18 18 19 20 19 17 17 17 17 15 17 19 17 13 13 14 12 10 9 9 9 12 15 15 16 19 21 21 22 22 21 21 24 29 33 32 26 25 27 27 26 27 33 35 33 33 32 30 29 28 26 25 24 24 24 24 24 25 26 26 24 22 19
3 4 5 6 7 8 8 8 8 9 10 10 11 12 13 14 15 16 16 16 17 18 19 19 18 19 18 16 15 16 16 15 16 18 17 14 14 16 16 12 8 8 8 8 10 12 15 15 16 19 22 25 25 24 25 27 32 34 30 27 27 29 28 28 33 36 34 33 33 31 30 29 27 26 25 25 24 25 25 25 26 27 26 23 18
3 4 5 6 7 7 8 8 8 9 10 10 11 11 13 13 14 15 16 16 17 19 19 18 18 17 15 14 14 15 14 15 17 18 15 14 16 18 18 16 11 7 7 7 6 8 11 12 12 15 17 20 25 28 28 28 33 36 32 29 29 29 29 30 33 37 35 34 33 32 31 30 28 27 26 26 26 25 25 25 26 27 25 22 18
3 4 5 6 7 7 8 8 8 9 10 10 10 10 11 12 13 14 16 17 18 18 17 17 16 15 15 14 14 14 16 18 18 17 14 14 18 19 18 17 14 11 9 8 8 8 9 12 15 15 15 18 23 28 30 29 33 36 33 32 33 30 28 29 33 38 37 35 34 32 31 30 29 28 27 27 27 27 26 26 27 27 25 22 18
3 4 5 5 6 7 7 8 8 9 10 10 10 10 10 11 12 13 15 17 17 17 17 16 15 15 16 15 14 14 17 19 19 17 15 14 16 19 19 18 17 15 13 10 8 8 9 11 16 16 14 17 22 28 31 27 30 37 36 34 35 31 28 28 33 38 38 37 35 32 32 31 29 29 28 28 29 28 27 28 27 27 25 22 18
3 3 4 5 5 6 7 7 8 9 9 10 10 10 10 11 12 13 14 16 17 18 18 17 15 15 16 16 16 16 17 18 18 16 16 16 16 18 19 19 18 16 17 15 10 10 13 12 12 15 16 18 22 28 29 25 28 36 37 35 36 33 28 28 33 38 38 37 35 33 31 31 30 30 29 29 29 28 28 28 28 27 25 22 19
3 3 4 4 5 6 6 7 8 9 9 9 9 9 9 10 12 13 14 15 17 18 18 19 18 17 18 18 19 21 21 20 18 16 17 18 17 17 17 18 19 18 18 17 11 10 14 13 11 15 19 19 20 26 26 25 27 32 33 33 36 35 30 28 32 37 39 38 37 34 32 31 30 31 31 31 31 29 29 29 29 27 25 23 19
4 4 4 5 6 6 7 8 8 9 10 10 9 9 9 11 12 13 14 14 16 18 18 19 19 20 20 20 20 21 21 19 19 18 18 18 16 16 16 16 18 18 16 17 16 11 10 12 12 14 16 17 17 21 22 23 26 30 33 33 34 34 31 28 31 37 39 39 38 36 34 32 31 31 32 32 32 31 30 30 29 28 26 23 21
5 5 5 6 7 7 8 9 9 10 10 11 11 10 11 12 13 13 14 14 14 16 17 17 18 19 19 19 20 21 20 19 18 17 17 18 17 15 14 14 14 16 16 17 17 12 10 12 12 11 12 15 17 19 22 23 25 29 34 34 33 33 31 29 31 34 39 40 39 38 36 34 32 31 32 32 33 32 32 31 30 28 27 25 23
6 6 6 7 8 8 9 9 10 11 11 11 11 11 11 12 13 13 13 14 14 14 15 16 17 17 18 20 21 21 19 18 18 17 17 18 18 17 15 14 14 14 15 15 15 13 12 12 11 10 12 15 17 19 21 23 25 29 34 35 33 32 31 30 30 31 35 40 40 40 38 36 34 32 32 32 33 34 34 33 31 29 28 27 24
8 8 7 8 9 9 9 10 10 11 12 12 12 12 12 12 13 13 14 14 14 14 15 15 16 16 17 19 21 23 23 20 19 19 18 18 18 16 16 15 15 14 13 13 13 12 11 10 10 12 13 14 15 17 17 20 23 25 30 34 33 31 29 30 30 28 29 35 40 40 39 37 35 33 32 32 33 35 36 34 32 31 30 29 25
9 9 9 9 9 10 10 11 11 12 12 13 12 12 12 13 13 13 14 14 14 14 14 15 15 15 16 17 20 26 28 24 21 22 21 19 17 16 16 16 15 14 13 12 12 11 10 9 10 12 11 11 10 9 10 15 20 20 24 29 31 30 29 29 30 29 28 31 37 40 40 39 37 35 33 32 32 34 36 36 35 33 32 30 27
10 10 9 9 10 11 11 12 12 13 13 13 13 13 13 13 13 13 14 14 14 14 14 15 15 14 15 16 18 24 29 28 26 26 24 20 17 17 18 16 15 14 13 12 11 12 11 9 9 11 11 10 8 5 5 9 13 16 19 23 26 28 29 27 27 30 29 29 34 39 41 41 38 36 34 32 32 33 35 38 37 36 34 31 29
10 10 10 10 10 11 12 12 13 13 13 14 15 16 14 13 13 13 14 15 14 14 14 15 15 15 14 15 17 20 25 28 29 29 29 25 20 20 21 19 16 14 13 12 11 11 12 10 10 10 9 8 7 5 5 6 8 11 13 14 17 22 27 28 28 31 31 29 33 39 40 39 38 36 34 32 31 31 33 37 38 36 36 33 30
10 10 10 10 11 12 12 13 13 12 13 16 17 16 15 15 14 12 14 15 15 15 15 15 16 16 15 15 16 18 19 22 25 28 30 30 28 25 26 25 20 16 14 13 12 13 14 12 10 9 7 6 6 5 6 6 7 9 10 10 9 12 19 23 22 26 30 28 31 38 40 40 38 37 36 34 32 32 32 34 36 36 36 34 30
10 10 11 11 13 13 13 13 12 12 15 17 17 15 16 16 15 13 13 14 15 16 15 15 16 16 15 14 15 18 19 18 20 24 26 29 30 29 29 29 27 23 18 14 14 14 14 13 14 12 8 7 8 7 7 8 9 10 8 9 9 7 11 12 8 13 23 27 31 35 37 39 39 38 37 36 34 35 34 33 33 36 36 33 29
11 11 12 13 13 13 13 13 13 13 15 17 17 17 17 17 16 14 13 14 14 15 16 16 16 16 16 15 15 17 19 17 16 20 24 26 27 29 29 31 31 29 25 19 16 17 15 14 16 16 14 13 16 15 10 8 7 8 8 10 11 9 9 7 3 4 12 21 25 21 14 21 31 34 34 36 36 36 35 34 34 35 35 33 27
12 12 13 13 13 13 13 13 13 13 15 17 18 18 18 18 18 16 14 13 14 14 15 16 17 17 16 16 15 16 18 18 16 16 20 22 24 26 28 29 31 32 30 26 21 19 19 18 18 19 18 16 18 19 18 17 13 6 7 9 12 12 11 10 5 3 5 12 16 15 16 7 14 15 12 16 28 31 29 30 32 32 32 30 24
13 13 14 14 14 13 13 13 13 12 13 15 16 17 18 19 19 18 16 15 15 15 15 15 16 17 17 16 16 16 17 20 19 17 17 18 20 22 24 27 31 32 32 30 26 22 20 20 21 22 22 19 18 20 18 17 16 11 6 6 9 11 10 9 7 7 7 11 16 24 27 20 17 19 20 15 14 23 22 22 26 28 27 25 20
13 14 13 13 14 13 13 12 12 12 12 12 12 14 16 18 19 18 16 15 17 18 18 17 16 16 17 16 16 16 16 18 19 18 16 16 17 19 21 24 29 35 36 34 31 29 26 23 23 24 26 25 22 21 17 13 14 14 9 5 1 5 10 12 13 17 16 13 18 24 23 21 25 30 28 26 22 21 19 18 21 24 24 23 20
13 12 13 13 13 13 12 12 11 12 11 11 12 13 14 15 17 16 14 15 16 18 20 21 21 19 16 15 15 15 15 17 17 16 15 15 16 17 19 20 23 30 36 35 34 33 32 30 28 30 33 33 28 23 18 13 11 11 9 7 9 16 23 25 23 21 19 14 18 23 18 18 29 37 33 31 32 30 27 25 23 24 24 22 21
12 12 12 12 12 12 12 11 11 12 11 11 13 13 11 12 13 13 13 14 15 16 18 21 24 24 20 16 15 14 15 17 17 15 14 14 15 16 17 18 19 22 26 29 31 31 32 32 32 32 35 35 32 27 21 16 12 11 14 17 18 22 25 26 24 24 23 19 20 30 27 22 30 38 34 32 37 35 33 32 28 25 23 22 19
12 12 12 12 12 12 12 11 11 11 11 11 11 11 11 11 12 11 11 12 13 15 16 17 21 25 24 20 17 16 16 17 16 15 15 15 15 15 17 17 17 19 20 22 24 27 28 30 31 32 35 36 37 34 29 24 19 18 21 20 20 24 25 21 19 22 25 23 24 33 32 23 29 39 37 35 38 36 32 31 28 23 21 19 18
12 12 12 13 13 13 12 13 12 12 12 10 9 10 11 12 11 10 9 10 11 13 14 15 16 20 23 23 21 19 18 17 16 16 18 16 14 14 16 17 18 20 19 18 19 22 23 26 28 31 34 36 38 39 37 34 29 27 27 24 22 25 25 20 19 22 24 24 24 31 32 24 26 35 35 33 34 31 28 27 25 23 22 20 19
12 12 12 12 13 13 12 13 14 14 14 12 9 9 10 12 12 10 9 10 11 12 13 14 15 16 19 22 23 23 21 20 19 20 21 19 16 15 15 16 18 19 18 17 17 18 20 23 26 28 31 33 35 37 38 38 37 34 32 28 24 25 24 20 19 17 14 13 16 23 25 18 17 22 24 23 20 20 23 27 27 26 26 24 23
Wind_Direction
187 188 184 185 184 186 193 195 206 209 207 224 233 227 229 235 238 240 243 245 247 246 242 239 235 234 239 235 232 237 234 235 236 243 252 240 233 242 245 252 265 265 247 231 210 216 238 232 226 244 249 245 232 223 229 229 227 229 234 223 208 200 174 161 152 146 135 125 134 148 158 152 137 132 128 119 112 109 106 109 116 121 121 119 118
189 191 180 179 184 187 197 195 214 224 226 234 234 236 239 239 241 244 248 246 248 249 245 246 243 236 238 238 234 238 237 237 237 237 245 248 242 233 234 247 260 262 252 235 217 215 237 236 220 224 233 244 240 220 231 233 222 222 228 215 202 198 191 186 176 173 165 150 140 141 152 154 145 142 140 131 121 117 114 112 116 122 123 123 122
185 187 176 178 189 195 202 199 217 228 235 248 242 243 249 249 248 250 257 258 257 256 251 249 251 247 241 240 238 238 239 237 239 239 240 243 247 242 236 244 257 260 253 242 227 211 220 232 221 217 227 236 232 224 233 230 212 213 220 206 198 204 203 201 197 198 184 166 156 149 152 153 150 151 151 145 136 129 124 118 115 119 124 127 126
180 179 176 190 198 206 213 201 215 228 226 241 251 249 250 253 255 256 261 267 268 265 263 259 258 258 253 251 246 239 238 239 243 243 241 240 244 249 241 240 250 256 252 246 237 220 216 223 222 219 224 228 226 227 229 221 212 210 209 200 198 206 210 213 211 206 194 177 168 161 159 156 153 157 160 157 148 140 135 130 122 120 125 129 130
182 179 183 201 205 217 228 209 220 235 230 238 249 247 251 254 253 254 254 257 264 265 266 265 263 264 261 261 259 249 237 235 244 243 242 241 239 243 237 234 242 247 246 246 243 232 223 219 216 217 222 224 222 225 225 219 215 206 200 200 200 210 218 218 215 212 200 186 174 164 158 155 156 161 167 165 158 150 143 142 140 133 129 128 130
188 189 192 205 208 216 230 223 221 232 235 239 245 245 251 255 255 257 253 249 255 260 264 264 265 266 262 262 263 259 248 239 244 245 245 244 241 239 233 233 240 240 237 244 245 238 230 221 214 214 221 224 218 220 223 216 213 206 202 203 202 215 227 216 209 212 203 189 180 170 159 154 157 163 169 170 168 163 155 154 156 149 141 132 129
190 195 202 207 216 221 227 229 225 230 240 242 247 252 254 256 257 258 259 256 255 255 256 256 259 262 265 268 265 261 255 244 241 244 246 244 244 240 234 235 240 239 233 234 241 243 238 226 217 214 216 221 218 219 220 212 210 207 208 210 209 217 227 224 213 210 204 194 185 178 172 163 159 163 168 173 173 169 163 161 160 157 154 143 133
185 191 200 210 225 231 228 226 229 235 242 251 258 260 262 265 262 260 262 263 261 259 257 256 257 258 262 264 263 261 257 248 242 244 245 246 249 244 237 233 231 234 232 228 234 240 240 231 221 214 211 215 216 219 219 213 211 208 210 213 215 217 221 227 221 210 205 197 191 185 183 177 163 163 170 174 173 170 166 164 166 164 160 152 142
175 183 194 212 225 230 230 221 223 231 233 243 251 251 258 266 265 262 261 262 264 265 263 263 261 259 259 259 259 259 257 253 248 246 245 248 251 246 240 234 228 229 230 232 235 231 232 232 225 219 216 213 211 215 215 214 216 216 215 213 214 215 215 223 219 209 205 198 194 189 188 187 174 167 172 176 173 170 171 170 171 169 165 160 157
174 183 194 209 220 223 226 223 226 236 238 242 248 248 247 250 254 257 256 257 262 266 266 266 265 262 262 260 257 254 252 253 252 250 249 248 251 250 244 237 232 228 225 228 228 221 223 228 226 224 222 215 210 210 210 210 215 217 215 212 215 212 211 219 214 207 205 196 193 194 194 191 183 174 172 177 176 171 175 176 174 170 168 168 167
175 183 199 204 216 222 222 227 233 240 245 248 251 251 246 245 249 255 256 255 258 263 267 266 266 266 264 263 260 254 251 251 252 253 252 249 250 251 247 241 235 229 224 224 221 218 222 225 222 222 222 219 215 212 209 209 212 214 213 211 215 211 208 215 212 204 201 197 197 201 203 193 185 181 173 175 177 173 176 179 177 174 173 177 171
176 188 199 203 219 224 219 223 232 238 243 247 249 251 251 251 254 259 260 258 256 257 260 264 267 268 266 265 262 257 252 249 248 250 251 249 247 249 249 244 238 232 227 225 223 218 218 217 214 216 219 221 220 217 215 211 207 209 212 211 212 207 205 212 210 201 198 203 204 206 209 192 184 184 174 173 176 173 176 178 179 179 176 177 169
182 195 201 214 228 228 222 223 229 234 238 243 247 250 254 255 258 262 260 258 258 255 256 261 266 268 268 268 263 257 251 247 247 246 247 247 246 249 252 247 241 236 230 225 226 224 219 215 214 216 219 221 219 217 217 214 209 208 208 209 209 205 204 208 209 200 198 207 209 209 207 187 183 187 176 173 178 174 174 175 176 178 176 174 170
186 198 209 225 235 236 234 234 236 237 240 243 244 247 252 254 255 259 259 259 260 259 257 256 260 268 275 278 271 263 252 243 243 244 243 244 243 244 249 248 244 240 237 231 228 227 225 224 225 223 221 221 215 209 213 214 212 212 208 204 204 205 203 204 209 206 202 206 207 208 199 185 188 190 178 174 177 174 173 172 172 173 172 171 170
188 202 217 230 239 246 248 247 247 249 250 251 250 250 253 255 257 263 268 268 265 260 253 249 260 274 282 280 277 280 265 242 237 240 238 237 238 238 240 242 240 241 242 238 231 227 227 230 229 224 224 226 214 202 205 209 212 214 210 204 202 205 203 202 210 208 203 202 202 203 194 185 189 185 176 173 172 172 171 169 167 167 166 166 163
201 212 224 238 246 254 259 259 259 260 263 265 267 267 264 262 262 266 271 275 274 269 260 252 257 268 277 282 284 286 278 263 256 243 231 228 231 234 235 236 239 242 240 238 236 232 232 233 227 223 226 230 219 205 201 202 209 213 211 205 202 206 204 202 208 205 200 201 200 197 187 178 179 175 173 172 170 170 167 163 162 160 159 158 155
216 227 238 251 257 260 264 268 271 272 275 278 280 282 281 277 273 271 270 272 277 279 272 258 253 254 258 273 284 278 280 302 311 268 225 223 228 232 233 232 233 237 238 239 238 234 233 232 227 224 226 226 221 216 210 202 204 208 208 204 204 209 205 201 207 202 197 201 197 190 182 175 174 173 173 172 171 170 164 161 161 158 157 155 153
242 248 255 263 268 270 270 275 280 285 290 293 294 294 293 291 288 284 279 277 280 283 279 268 259 255 253 261 270 274 288 304 309 297 244 229 225 232 238 235 231 232 237 240 238 237 235 230 226 225 225 222 217 217 217 209 200 198 200 203 206 210 203 198 204 201 195 197 193 187 183 176 172 174 175 173 172 171 165 163 164 160 159 159 158
270 269 268 268 272 278 279 282 287 289 289 291 293 293 293 294 291 289 291 290 285 284 285 285 277 265 254 259 266 269 276 283 283 296 290 252 231 235 241 242 240 234 236 240 236 234 233 227 225 224 224 221 215 215 218 212 201 194 196 205 209 208 200 197 202 201 194 192 190 188 186 179 174 176 177 175 175 172 169 168 168 166 165 165 164
279 285 286 284 282 285 286 283 281 281 280 280 282 285 286 289 289 288 288 290 289 287 288 290 288 284 273 267 269 269 269 269 268 270 283 278 261 250 243 240 241 233 232 237 235 233 231 230 232 226 222 220 215 214 216 212 203 194 196 207 210 206 201 199 201 200 193 189 190 190 187 182 179 180 179 178 178 175 174 173 172 172 171 169 168
262 284 291 293 288 288 287 283 282 285 286 285 286 288 288 288 288 285 284 286 287 287 287 287 287 289 289 285 282 278 271 269 266 258 259 270 275 272 257 243 239 235 233 232 230 234 233 232 233 225 218 218 217 218 218 215 206 197 200 209 209 208 206 202 200 200 195 190 191 193 188 186 185 182 182 182 181 180 178 178 177 175 174 172 169
293 295 291 295 294 294 294 291 293 295 293 290 289 290 289 288 287 285 285 284 281 280 281 284 285 286 288 289 287 283 280 276 269 257 255 262 268 275 272 261 246 239 237 234 232 235 235 232 232 227 222 220 219 219 216 213 210 203 206 210 209 210 209 203 200 200 198 191 192 197 193 190 190 186 185 185 184 184 182 182 181 177 176 174 170
305 298 294 306 308 305 302 298 296 296 293 292 291 291 290 290 290 287 284 282 281 281 282 281 283 284 283 284 284 282 283 282 281 278 271 265 268 273 273 274 275 261 247 239 238 241 239 235 233 230 225 220 219 218 212 211 212 209 210 211 210 211 209 204 200 200 200 194 193 201 198 193 195 191 188 188 187 188 188 187 185 181 179 177 174
287 295 304 315 314 308 305 302 300 298 296 296 295 295 295 294 294 290 287 286 285 285 285 284 284 284 284 286 286 283 281 281 284 285 278 269 269 272 273 280 291 281 264 241 237 242 239 235 233 230 224 218 220 222 217 214 210 209 212 212 212 213 210 206 201 200 201 197 194 201 202 197 196 194 191 190 190 192 192 191 187 183 183 181 179
295 303 311 316 314 308 307 306 305 303 301 300 297 296 296 295 292 290 289 289 286 285 286 286 287 285 286 289 290 286 283 284 287 287 281 271 268 270 275 276 274 274 273 257 240 242 242 238 232 230 228 222 219 223 225 219 209 207 212 213 214 214 212 209 203 201 202 201 198 201 205 201 197 196 195 193 192 194 194 193 190 187 188 188 183
319 321 319 313 313 309 308 308 306 305 302 300 300 298 297 295 292 290 289 287 286 287 286 286 287 286 287 291 291 288 286 285 286 286 282 273 265 264 273 275 265 262 264 257 244 235 238 237 229 227 228 224 219 220 228 225 214 208 209 212 215 214 213 211 205 203 202 202 202 203 207 205 200 197 197 195 194 195 195 194 192 190 193 196 188
329 328 321 314 316 312 311 310 307 307 306 305 304 302 300 297 293 292 290 288 288 288 288 288 290 290 290 293 292 288 286 284 284 285 285 282 274 269 272 278 272 265 259 254 250 241 235 229 224 228 229 226 222 217 223 225 216 210 207 209 213 213 214 212 206 204 203 202 203 205 207 207 204 200 198 197 195 197 197 194 194 193 197 201 192
324 329 324 320 321 317 317 315 314 315 313 312 310 306 307 303 298 296 293 293 292 291 293 293 295 298 297 296 293 289 286 285 286 288 286 283 280 277 278 279 277 279 274 260 257 254 246 231 222 231 233 228 224 218 221 222 213 209 206 204 208 211 215 215 208 205 204 203 204 207 207 206 206 203 199 199 198 198 199 196 195 197 200 204 197
347 342 330 324 323 322 322 320 321 323 320 319 315 311 313 309 304 302 299 299 298 297 299 300 303 304 300 294 293 294 292 287 287 290 288 281 279 278 277 276 271 275 282 275 272 268 262 256 244 235 228 227 226 222 223 220 212 209 205 200 206 211 214 215 210 205 204 205 205 207 207 206 207 205 201 201 200 199 200 199 199 201 203 205 201
9 344 330 326 325 325 325 324 326 326 324 324 319 316 314 310 307 305 304 308 308 305 307 309 310 306 299 298 300 302 300 297 293 291 289 284 281 279 278 277 268 260 268 277 278 277 274 278 275 256 229 226 227 222 223 221 214 210 205 201 205 210 213 214 211 206 204 205 206 208 208 207 208 208 204 202 201 201 202 201 202 205 205 205 204
14 346 335 330 329 330 329 329 329 328 328 328 326 324 318 314 314 313 314 317 317 314 316 319 319 313 310 310 310 310 311 313 309 299 293 290 286 283 280 274 265 257 260 269 271 275 277 278 280 274 252 241 235 226 223 222 216 212 207 204 204 206 212 213 211 207 204 204 206 207 209 208 209 210 207 204 202 203 205 203 204 206 206 206 206
25 357 344 338 342 343 340 338 336 335 337 336 335 332 327 326 324 321 323 323 320 321 323 326 329 327 324 324 328 334 339 338 329 314 310 312 303 294 285 273 269 268 266 266 268 274 275 274 278 279 279 274 258 238 224 216 216 214 208 205 203 202 208 212 210 207 204 204 205 206 208 209 210 210 209 206 203 203 206 204 204 206 206 206 207
41 19 7 6 6 1 357 356 352 349 349 346 344 340 336 336 332 329 330 327 326 331 335 338 344 346 343 343 350 355 355 352 345 337 334 330 317 304 294 280 276 275 267 261 259 269 274 276 283 282 287 290 268 241 221 209 215 215 208 205 202 200 206 210 208 206 205 205 205 205 207 208 210 210 209 208 204 203 206 206 204 206 207 207 208
51 38 32 28 25 21 15 11 6 1 358 354 351 348 344 342 339 338 338 335 336 341 347 348 351 354 353 354 358 358 353 348 347 348 346 341 330 315 302 287 279 276 267 256 251 258 272 275 280 281 286 292 270 239 218 210 213 211 204 202 201 200 204 208 206 205 205 206 207 205 205 207 209 210 209 208 206 204 206 207 207 207 207 208 208
64 55 50 43 37 32 26 19 12 5 1 357 354 351 348 347 346 346 346 345 347 350 352 355 356 359 1 1 0 357 352 347 345 348 347 343 340 332 321 310 300 291 281 264 252 254 269 273 276 278 281 286 271 245 227 218 215 209 202 199 199 198 202 206 206 206 207 207 208 207 206 207 209 209 208 209 209 208 207 209 210 210 208 208 209
73 66 57 50 42 34 27 20 14 9 4 360 358 356 354 353 352 353 355 354 356 360 2 4 7 10 13 12 9 4 1 357 352 348 346 342 340 340 338 335 329 315 297 277 260 259 272 277 280 282 285 288 273 252 236 222 215 210 204 199 197 197 199 202 202 205 209 209 208 209 208 208 209 209 208 209 211 211 210 211 211 210 209 209 210
74 66 57 49 42 36 31 25 20 16 11 6 4 4 1 360 358 359 2 2 4 8 12 14 16 21 25 23 20 19 16 11 3 356 350 344 340 341 343 340 336 330 318 297 277 266 267 274 285 290 294 295 274 249 235 224 218 214 206 201 199 197 199 201 198 203 211 210 209 210 210 210 211 209 209 210 212 213 213 213 213 211 210 210 210
74 64 56 49 45 44 40 35 30 25 20 15 14 12 6 5 6 6 7 9 11 15 17 19 22 28 32 29 26 26 25 21 13 6 2 355 350 349 348 341 333 330 329 322 308 293 278 275 289 294 296 300 284 246 223 222 221 216 203 198 200 202 202 200 197 201 210 210 208 209 210 212 211 210 210 210 212 213 214 215 215 213 211 210 210
72 65 61 56 54 51 45 41 36 30 25 21 22 22 14 8 10 12 15 15 16 20 22 23 27 31 32 32 31 31 31 30 27 21 17 11 3 359 354 346 338 333 331 332 331 323 312 300 300 298 291 290 290 273 238 225 225 221 206 194 195 202 207 205 201 203 209 211 210 211 211 212 211 210 210 211 212 213 215 217 216 215 213 210 209
72 70 67 63 58 54 49 46 41 34 30 28 31 34 30 23 19 17 21 22 20 23 25 26 29 31 32 35 33 32 32 33 33 32 31 28 21 12 7 1 352 345 340 339 343 344 339 327 315 312 305 286 277 272 260 240 233 237 229 209 195 195 202 206 204 203 204 205 208 210 211 212 211 211 211 212 213 214 216 219 218 216 214 210 208
77 74 70 65 61 57 54 50 43 39 38 39 40 40 39 38 33 25 26 28 26 26 27 28 31 31 32 35 31 27 28 28 28 31 34 37 36 30 24 19 11 3 356 352 357 360 359 355 344 332 317 291 278 264 250 240 234 242 247 236 217 197 197 201 202 202 200 198 200 204 208 209 208 209 210 210 212 213 217 219 218 217 214 208 205
81 75 70 66 62 59 56 52 48 45 46 48 50 52 52 49 42 32 30 33 31 31 30 29 31 30 30 33 31 27 25 22 22 25 28 33 36 37 37 35 30 23 14 10 12 8 8 16 16 10 2 350 340 313 270 256 245 240 241 233 229 219 200 194 184 191 198 197 196 199 205 207 205 206 208 210 211 211 214 216 218 218 213 205 200
80 75 71 67 63 60 57 55 51 49 52 56 58 61 61 56 48 39 36 37 36 35 35 34 33 32 31 32 32 30 28 25 21 23 26 27 30 34 38 41 42 40 33 27 22 17 18 23 24 22 22 14 8 4 350 326 286 245 234 227 221 213 199 193 154 156 192 196 190 183 187 201 203 203 205 208 211 211 212 214 216 216 210 200 194
81 76 72 69 66 62 60 58 55 55 59 62 64 64 61 57 54 49 42 41 40 37 38 37 35 35 33 33 34 32 33 34 31 27 27 27 29 32 34 37 41 45 45 43 38 32 29 28 26 23 18 10 7 11 10 3 350 308 251 231 220 210 199 194 183 130 167 185 164 109 67 95 174 172 167 190 203 208 213 212 210 209 200 187 180
84 78 73 71 68 64 62 61 58 58 61 62 64 65 62 60 61 59 50 47 46 42 38 36 34 33 32 33 35 33 33 37 39 38 34 30 31 34 36 38 39 41 45 48 48 47 42 37 33 28 22 17 10 9 11 9 4 354 311 255 230 217 202 186 161 122 139 170 136 90 62 60 95 95 70 75 154 184 196 202 198 191 179 164 159
86 81 75 71 69 66 64 62 58 55 58 58 58 62 65 65 65 62 56 52 51 47 42 37 33 30 29 31 34 36 34 32 34 38 37 35 35 36 39 42 41 40 42 45 48 50 49 47 43 37 34 33 27 18 16 17 17 13 359 329 291 103 94 95 99 103 115 143 131 99 65 53 79 84 70 68 91 123 143 161 168 160 149 143 145
88 84 78 73 71 68 64 62 55 50 54 61 62 67 74 74 69 63 57 55 54 51 46 42 39 37 34 31 31 33 31 25 26 34 40 40 41 41 41 42 39 39 40 42 44 47 48 49 48 45 42 41 39 32 26 32 37 33 35 60 92 98 91 83 80 83 89 107 126 115 84 66 83 83 73 76 85 92 104 119 127 128 126 126 131
91 87 81 75 72 68 64 61 53 47 54 67 71 73 75 74 73 68 61 58 55 52 49 44 42 41 42 40 34 30 26 23 25 35 46 48 45 43 43 42 38 39 39 38 39 43 45 46 46 47 47 46 47 45 41 46 56 70 85 89 95 101 94 80 69 67 70 75 103 111 97 82 89 86 75 79 86 84 88 97 103 109 112 113 120
95 88 83 77 72 68 62 57 49 43 49 61 71 71 65 65 70 68 63 60 56 54 52 48 44 43 43 46 45 38 33 29 29 37 47 50 47 44 46 44 41 42 41 38 38 40 42 43 43 46 48 48 50 50 52 58 67 80 84 79 82 89 87 81 73 70 73 76 89 100 96 84 88 89 79 74 79 79 81 90 97 104 110 114 119
97 90 85 79 74 69 61 55 50 44 44 56 71 69 62 64 68 65 61 60 56 56 56 53 50 45 43 47 52 50 44 39 39 46 52 51 45 44 46 47 46 45 41 38 39 38 40 41 42 44 45 47 48 48 50 57 66 73 71 67 77 87 86 87 90 83 82 86 91 96 97 92 90 89 82 73 69 68 77 92 101 107 114 119 119
97 91 88 84 78 71 62 54 54 49 43 46 62 69 65 68 68 64 62 61 57 58 59 56 54 50 46 48 53 55 53 52 53 56 56 54 50 47 47 48 47 46 44 42 41 41 42 42 41 41 41 42 44 44 46 51 58 63 66 67 75 84 84 84 92 93 84 86 100 105 105 103 93 88 89 87 72 58 73 91 101 106 112 119 119